TimeEDT,TemperatureF,Dew PointF,Humidity,Sea Level PressureIn,VisibilityMPH,Wind Direction,Wind SpeedMPH,Gust SpeedMPH,PrecipitationIn,Events,Conditions,WindDirDegrees,DateUTC
12:53 AM,78.1,73.9,87,30.24,10.0,ENE,5.8,-,N/A,,Clear,70,2013-07-16 04:53:00
1:53 AM,75.9,73.0,91,30.23,9.0,NNE,5.8,-,N/A,,Partly Cloudy,30,2013-07-16 05:53:00
2:53 AM,75.0,73.0,94,30.23,8.0,NE,3.5,-,N/A,,Clear,40,2013-07-16 06:53:00
3:53 AM,75.0,73.0,94,30.22,9.0,Calm,Calm,-,N/A,,Clear,0,2013-07-16 07:53:00
4:53 AM,73.9,72.0,93,30.22,8.0,NNE,5.8,-,N/A,,Clear,20,2013-07-16 08:53:00
5:47 AM,73.4,71.6,94,30.22,7.0,NNE,3.5,-,N/A,,Scattered Clouds,20,2013-07-16 09:47:00
5:53 AM,73.9,72.0,93,30.22,7.0,NNE,4.6,-,N/A,,Scattered Clouds,20,2013-07-16 09:53:00
6:35 AM,73.4,71.6,94,30.23,1.0,NNE,5.8,-,N/A,,Scattered Clouds,20,2013-07-16 10:35:00
6:42 AM,73.4,71.6,94,30.24,0.2,NNE,4.6,-,N/A,,Scattered Clouds,30,2013-07-16 10:42:00
6:53 AM,75.0,73.0,94,30.24,0.2,North,5.8,-,N/A,,Mostly Cloudy,10,2013-07-16 10:53:00
7:53 AM,75.9,73.9,94,30.25,0.2,NE,9.2,-,N/A,Fog,Fog,40,2013-07-16 11:53:00
8:38 AM,78.8,75.2,89,30.27,2.5,NE,6.9,-,N/A,,Mostly Cloudy,50,2013-07-16 12:38:00
8:53 AM,78.1,75.0,90,30.27,-9999.0,NNE,6.9,-,N/A,,Mostly Cloudy,20,2013-07-16 12:53:00
9:22 AM,80.6,75.2,84,30.27,10.0,NE,6.9,-,N/A,,Mostly Cloudy,40,2013-07-16 13:22:00
9:35 AM,82.4,75.2,79,30.27,10.0,NE,6.9,-,N/A,,Mostly Cloudy,50,2013-07-16 13:35:00
9:53 AM,82.9,75.9,79,30.27,10.0,NNE,6.9,-,N/A,,Mostly Cloudy,30,2013-07-16 13:53:00
10:53 AM,86.0,73.0,65,30.26,10.0,ENE,6.9,-,N/A,,Mostly Cloudy,70,2013-07-16 14:53:00
11:53 AM,86.0,73.0,65,30.26,10.0,ENE,9.2,-,N/A,,Mostly Cloudy,60,2013-07-16 15:53:00
12:53 PM,88.0,72.0,59,30.25,10.0,East,10.4,-,N/A,,Mostly Cloudy,100,2013-07-16 16:53:00
1:53 PM,88.0,72.0,59,30.24,10.0,SE,11.5,-,N/A,,Mostly Cloudy,130,2013-07-16 17:53:00
2:53 PM,89.1,72.0,57,30.22,10.0,East,11.5,-,N/A,,Mostly Cloudy,100,2013-07-16 18:53:00
3:53 PM,89.1,73.0,59,30.22,10.0,ESE,13.8,-,N/A,,Scattered Clouds,120,2013-07-16 19:53:00
4:53 PM,87.1,73.0,63,30.22,10.0,ESE,13.8,-,N/A,,Scattered Clouds,110,2013-07-16 20:53:00
5:53 PM,86.0,72.0,63,30.21,10.0,ESE,11.5,-,N/A,,Scattered Clouds,120,2013-07-16 21:53:00
6:53 PM,86.0,71.1,61,30.22,10.0,ESE,11.5,-,N/A,,Scattered Clouds,120,2013-07-16 22:53:00
7:53 PM,82.0,70.0,67,30.22,10.0,East,8.1,-,N/A,,Scattered Clouds,100,2013-07-16 23:53:00
8:53 PM,80.1,73.0,79,30.22,10.0,East,6.9,-,N/A,,Scattered Clouds,100,2013-07-17 00:53:00
9:53 PM,79.0,73.9,84,30.24,10.0,ESE,4.6,-,N/A,,Partly Cloudy,120,2013-07-17 01:53:00
10:53 PM,77.0,73.0,88,30.25,10.0,Calm,Calm,-,N/A,,Clear,0,2013-07-17 02:53:00
11:53 PM,75.9,73.0,91,30.25,10.0,Calm,Calm,-,N/A,,Partly Cloudy,0,2013-07-17 03:53:00